TimeEST,TemperatureF,Dew PointF,Humidity,Sea Level PressureIn,VisibilityMPH,Wind Direction,Wind SpeedMPH,Gust SpeedMPH,PrecipitationIn,Events,Conditions,WindDirDegrees,DateUTC
12:52 AM,28.9,19.9,69,30.19,10.0,Variable,3.5,-,N/A,,Clear,0,2013-12-28 05:52:00
1:52 AM,25.0,19.0,78,30.18,10.0,Calm,Calm,-,N/A,,Clear,0,2013-12-28 06:52:00
2:52 AM,21.9,18.0,85,30.18,10.0,Calm,Calm,-,N/A,,Clear,0,2013-12-28 07:52:00
3:52 AM,18.0,16.0,92,30.17,10.0,Calm,Calm,-,N/A,,Clear,0,2013-12-28 08:52:00
4:52 AM,19.0,17.1,92,30.15,10.0,Calm,Calm,-,N/A,,Clear,0,2013-12-28 09:52:00
5:52 AM,19.9,18.0,92,30.12,9.0,Calm,Calm,-,N/A,,Clear,0,2013-12-28 10:52:00
6:52 AM,21.0,18.0,88,30.11,9.0,Calm,Calm,-,N/A,,Mostly Cloudy,0,2013-12-28 11:52:00
7:52 AM,19.9,18.0,92,30.11,7.0,Calm,Calm,-,N/A,,Clear,0,2013-12-28 12:52:00
8:52 AM,25.0,21.9,88,30.11,9.0,Calm,Calm,-,N/A,,Overcast,0,2013-12-28 13:52:00
9:52 AM,30.0,24.1,79,30.11,9.0,Calm,Calm,-,N/A,,Overcast,0,2013-12-28 14:52:00
10:52 AM,37.0,25.0,62,30.09,10.0,Calm,Calm,-,N/A,,Partly Cloudy,0,2013-12-28 15:52:00
11:52 AM,43.0,23.0,45,30.06,10.0,West,8.1,-,N/A,,Overcast,270,2013-12-28 16:52:00
12:52 PM,43.0,25.0,49,30.04,10.0,West,9.2,-,N/A,,Overcast,260,2013-12-28 17:52:00
1:52 PM,43.0,25.0,49,30.03,10.0,West,9.2,-,N/A,,Overcast,280,2013-12-28 18:52:00
2:52 PM,42.1,26.1,53,30.04,10.0,West,12.7,17.3,N/A,,Overcast,260,2013-12-28 19:52:00
3:52 PM,42.1,27.0,55,30.05,10.0,West,9.2,-,N/A,,Overcast,280,2013-12-28 20:52:00
4:52 PM,41.0,26.1,55,30.08,10.0,West,11.5,-,N/A,,Mostly Cloudy,280,2013-12-28 21:52:00
5:52 PM,37.0,26.1,65,30.07,10.0,West,5.8,-,N/A,,Clear,260,2013-12-28 22:52:00
6:52 PM,32.0,26.1,79,30.09,10.0,Calm,Calm,-,N/A,,Clear,0,2013-12-28 23:52:00
7:52 PM,28.9,25.0,85,30.12,10.0,Calm,Calm,-,N/A,,Clear,0,2013-12-29 00:52:00
8:52 PM,28.0,25.0,88,30.09,9.0,Calm,Calm,-,N/A,,Clear,0,2013-12-29 01:52:00
9:52 PM,25.0,23.0,92,30.07,9.0,Calm,Calm,-,N/A,,Clear,0,2013-12-29 02:52:00
10:52 PM,25.0,23.0,92,30.07,7.0,Calm,Calm,-,N/A,,Clear,0,2013-12-29 03:52:00
11:52 PM,25.0,21.9,88,30.06,7.0,Calm,Calm,-,N/A,,Clear,0,2013-12-29 04:52:00